Location: Bonningues
(50.7927°N, 2.0150°E)
Time: 17:17:24
(UTC+00:00)

Cosmos 540 Rocket - Pass Details

Date: 08 August 2020
Orbit: 740 x 754 km, 74.1° (Epoch: 24 September)

Event Time Altitude Azimuth Distance (km) Brightness Sun altitude
Rises 23:14:58 0° 329° (NNW) 3,212 7.9 -22.8°
Reaches altitude 10° 23:17:30 10° 320° (NW) 2,284 6.8 -22.8°
Maximum altitude 23:22:06 33° 258° (WSW) 1,241 4.5 -23.0°
Enters shadow 23:22:59 31° 237° (WSW) 1,294 4.4 -23.0°
